Temperature
15 14 14 14 14 15 15 15 15 15 15 15 15 15 16 16 16 16 17 17 17 17 17 17 17 17 17 17 17 17 17 17 17 17 17 17 17 18 18 18 18 18 18
14 14 14 14 14 14 14 14 15 15 15 15 15 15 15 16 16 16 16 17 17 17 17 17 17 17 17 17 17 18 17 17 17 17 17 17 17 17 18 18 18 18 18
14 14 14 14 14 14 14 14 14 14 15 15 15 15 15 15 16 16 16 16 16 17 17 17 17 17 17 17 17 17 17 17 17 17 17 17 17 17 17 17 17 17 18
14 14 14 14 14 14 14 14 14 14 14 15 15 15 15 15 15 16 16 16 16 16 17 17 17 17 17 17 17 17 17 17 17 17 17 17 17 17 17 17 17 17 17
14 14 13 13 13 13 14 14 14 14 14 14 14 15 15 15 15 16 16 16 16 16 16 17 17 17 17 17 17 17 17 17 17 17 17 17 17 17 17 17 17 17 17
13 13 13 13 13 13 13 13 14 14 14 14 14 14 15 15 15 15 16 16 16 16 16 16 16 17 17 17 17 17 17 17 17 17 17 17 17 17 17 17 17 17 17
13 13 13 13 13 13 13 13 13 13 14 14 14 14 14 15 15 15 15 16 16 16 16 16 16 16 17 17 17 17 17 17 17 17 17 17 17 17 17 17 17 17 17
13 13 13 13 13 13 13 13 13 13 13 14 14 14 14 14 15 15 15 15 15 16 16 16 16 16 16 16 16 17 17 17 17 17 17 17 17 17 17 17 17 17 17
13 13 13 13 13 13 13 13 13 13 13 13 13 14 14 14 14 14 15 15 15 15 16 16 16 16 16 16 16 16 17 17 17 17 17 17 17 17 17 17 17 17 17
13 13 13 13 13 13 13 13 13 13 13 13 13 13 14 14 14 14 14 15 15 15 15 15 16 16 16 16 16 16 16 17 16 17 17 17 17 17 17 17 17 17 17
13 13 13 13 13 13 13 13 13 13 13 13 13 13 13 13 14 14 14 14 14 15 15 15 15 15 16 16 16 16 16 16 16 16 16 16 17 16 17 16 17 17 17
13 13 13 13 13 13 13 12 12 13 13 13 13 13 13 13 13 14 14 14 14 14 14 15 15 15 15 16 16 16 16 16 16 16 16 16 16 16 16 16 16 16 16
13 13 13 13 13 13 13 12 12 12 12 12 13 13 13 13 13 13 13 14 14 14 14 14 15 15 15 15 15 16 16 16 16 16 16 16 16 16 16 16 16 16 16
13 13 13 13 13 13 13 12 12 12 12 12 12 12 13 13 13 13 13 13 13 14 14 14 14 15 15 15 15 15 15 16 16 16 16 16 16 16 16 16 16 16 16
13 13 13 13 13 13 13 13 13 13 12 12 12 12 13 13 13 13 13 13 13 13 14 14 14 14 15 15 15 15 15 15 15 15 15 15 16 16 16 16 16 16 16
13 13 13 13 13 13 13 13 13 13 13 12 12 12 12 13 13 13 13 13 13 13 13 14 14 14 14 14 15 15 15 15 15 15 15 15 15 15 15 15 15 15 15
13 13 13 13 13 13 13 13 13 13 13 13 12 12 12 13 13 13 13 13 13 13 13 14 14 14 14 14 14 14 15 15 15 15 15 15 15 15 15 15 15 15 15
13 13 13 13 13 13 13 13 13 13 13 13 13 12 13 13 13 13 13 13 13 13 13 13 14 14 14 14 14 14 14 14 15 15 15 15 15 15 15 15 15 15 15
14 13 13 13 13 13 13 13 13 13 13 13 13 12 13 12 13 13 13 13 13 13 13 13 13 14 14 14 14 14 14 14 14 14 14 15 15 15 15 15 15 15 15
14 14 13 13 13 13 13 13 13 13 13 13 13 12 12 12 13 13 13 13 13 13 13 13 13 13 13 13 14 14 14 14 14 14 14 14 14 14 14 14 15 15 15
14 14 14 13 13 13 13 13 13 13 13 13 13 13 13 13 13 13 13 13 13 13 13 13 13 13 13 13 13 13 13 14 14 14 14 14 14 14 14 14 14 14 14
14 14 14 14 13 13 13 13 13 13 13 13 13 13 13 13 13 13 13 13 13 13 13 13 13 13 13 13 13 13 13 13 13 13 13 14 13 14 14 14 14 14 14
14 14 14 14 14 13 13 13 13 13 13 13 13 13 13 13 13 13 13 13 13 13 13 13 13 13 13 13 13 13 13 13 13 13 13 13 13 13 13 13 13 13 13
14 14 14 14 14 14 13 13 13 13 13 13 13 13 13 13 13 13 13 13 13 13 13 13 13 13 13 13 13 13 13 13 13 13 13 13 13 13 13 13 13 13 13
15 14 14 14 14 14 13 13 13 13 13 13 13 13 13 13 13 13 13 13 13 13 13 13 13 13 12 12 12 12 12 12 12 12 12 12 12 12 13 12 12 12 12
15 15 14 14 14 14 14 13 13 13 13 13 13 13 13 13 13 12 12 12 12 12 12 12 12 12 12 12 12 12 12 12 12 12 12 12 12 12 12 12 12 12 12
Wind_Speed
1 2 2 3 3 3 2 2 2 2 2 2 2 1 3 3 3 3 4 5 5 5 5 6 7 7 7 7 7 7 7 8 9 9 11 11 10 10 11 13 14 14 13
1 1 2 2 2 3 2 1 1 2 2 2 2 2 2 3 3 3 3 4 5 4 4 5 6 7 7 7 7 8 8 9 9 9 9 10 10 11 12 12 13 13 12
1 1 1 2 3 3 3 2 2 1 1 1 2 2 2 2 2 2 3 3 4 3 3 4 5 6 6 7 8 8 9 9 9 10 10 10 10 11 12 12 12 12 12
1 1 1 2 3 3 2 1 1 1 2 2 2 2 2 1 2 2 1 2 2 2 2 2 4 4 5 6 7 8 9 10 10 10 10 10 11 11 11 11 11 11 11
2 1 1 2 3 2 2 2 1 1 1 2 2 1 1 1 2 1 1 1 1 1 1 1 3 3 4 5 7 8 9 10 10 10 10 10 11 12 12 11 11 11 11
2 1 1 2 2 1 2 2 1 1 1 1 1 1 2 2 1 1 1 1 1 1 1 1 2 3 4 5 6 7 8 10 10 11 11 11 11 12 12 11 11 11 10
3 1 1 2 2 1 2 1 1 1 2 1 1 2 3 3 2 1 1 0 1 1 1 1 2 3 3 3 4 6 7 9 10 10 11 11 11 12 13 12 11 11 10
3 1 1 1 1 1 2 2 1 0 1 2 1 1 2 3 3 2 1 1 1 1 1 1 2 3 3 3 3 5 7 7 8 10 10 11 11 11 12 13 12 11 11
3 2 1 1 2 1 1 1 0 1 0 1 1 2 2 1 2 3 2 2 2 1 1 1 2 2 3 3 3 4 6 7 7 8 9 10 11 11 11 12 12 11 11
3 3 2 2 2 1 2 2 1 1 1 0 1 1 1 2 1 1 2 2 2 2 1 1 1 1 2 3 3 4 6 7 7 7 8 9 10 10 11 11 11 11 11
3 3 2 2 2 2 2 1 0 1 1 1 1 0 1 1 1 2 0 2 2 1 1 1 0 1 1 1 3 4 6 8 7 7 7 8 9 10 11 11 12 11 11
3 3 2 2 2 2 2 2 1 1 1 1 1 1 1 1 1 1 1 0 1 2 1 1 0 1 1 1 1 3 5 7 8 8 7 7 8 9 10 11 11 12 12
3 4 3 2 2 2 2 1 1 1 2 2 2 1 1 1 1 2 2 1 0 1 2 2 1 1 0 1 0 2 4 6 7 7 8 8 8 8 9 10 10 11 11
4 4 3 2 2 2 1 1 1 1 2 2 2 2 1 1 1 2 2 2 1 1 1 2 1 1 1 0 1 1 1 4 6 6 7 8 8 8 9 9 9 10 10
3 3 3 2 2 2 1 0 0 1 1 2 2 2 1 1 1 2 2 2 3 1 1 2 1 2 2 1 1 1 1 2 4 5 6 7 8 8 8 8 8 9 9
3 2 2 2 2 1 1 0 0 0 1 1 1 1 1 1 1 1 2 2 2 3 1 2 2 2 1 1 1 1 1 2 3 4 5 6 7 8 8 8 8 8 9
3 2 2 2 2 1 1 0 1 0 1 1 1 1 2 1 1 1 2 2 2 2 2 1 1 1 1 1 1 1 0 1 1 3 4 5 7 8 8 8 8 8 8
3 3 2 2 2 2 1 1 1 1 1 1 2 1 2 1 1 2 2 2 2 3 3 2 1 1 1 1 0 0 1 0 0 3 4 4 5 7 7 8 8 8 8
3 2 2 2 2 2 2 2 2 2 2 2 2 2 2 2 2 2 2 2 2 2 2 2 1 1 1 1 1 1 1 1 1 1 3 3 4 5 6 6 7 8 8
3 3 3 3 3 3 2 2 2 2 2 2 2 3 3 3 3 3 3 3 2 2 2 2 1 1 1 0 1 0 1 1 1 1 0 1 2 3 4 5 6 7 8
4 4 3 3 2 3 3 3 3 3 2 2 2 2 3 4 5 4 3 4 4 3 2 2 1 1 1 0 1 1 0 1 1 0 0 0 0 0 1 3 5 7 8
4 3 4 3 3 3 4 5 4 3 3 2 2 2 3 3 4 5 6 6 6 5 4 3 2 3 2 2 1 1 1 1 1 1 1 1 0 1 1 2 3 5 6
5 4 5 4 4 6 6 5 6 4 3 3 2 2 2 2 2 1 2 3 4 6 6 5 4 4 3 4 3 2 2 2 2 1 1 1 0 1 1 2 2 3 4
5 5 5 5 5 6 6 5 6 3 2 2 3 3 2 2 2 2 2 1 1 2 4 4 5 5 4 4 4 3 3 1 0 1 1 1 1 1 1 1 1 2 3
6 6 5 6 6 6 6 6 5 3 2 2 3 2 3 3 4 3 3 2 1 1 2 3 4 3 3 3 4 3 3 2 0 1 1 1 1 0 1 1 1 1 1
6 6 6 6 6 6 7 7 7 3 3 3 2 2 4 4 4 4 4 3 3 2 1 2 2 2 2 2 2 3 3 3 1 1 1 1 1 1 1 1 1 2 1
Wind_Direction
16 358 352 359 355 359 356 343 344 343 340 332 319 292 286 291 275 274 282 295 283 252 236 221 218 210 198 191 186 176 167 157 150 145 141 139 137 137 138 137 135 136 137
56 5 351 345 342 341 335 334 333 335 322 313 316 313 289 284 274 267 272 288 285 261 248 230 219 209 201 196 188 182 178 170 161 155 148 144 141 142 139 139 139 140 141
73 15 345 335 326 333 339 350 350 348 334 339 334 329 302 290 277 269 268 269 276 265 257 237 216 205 203 197 188 183 184 179 171 165 159 153 146 144 145 148 150 150 149
41 29 344 324 329 343 346 346 356 350 342 339 327 325 316 300 285 274 274 273 260 249 254 236 212 202 208 206 190 182 182 181 178 170 165 161 158 156 155 156 156 154 152
9 32 339 321 341 357 353 342 22 5 332 324 310 318 321 311 305 309 300 286 274 231 206 212 192 189 207 210 199 186 186 185 182 178 172 169 168 165 164 164 163 159 156
354 8 342 330 347 7 356 353 2 5 321 303 325 9 346 330 328 330 294 296 358 352 212 190 175 188 197 204 200 195 193 189 186 183 182 178 177 174 173 172 170 167 166
345 356 334 337 352 358 331 330 349 13 360 348 42 12 359 1 3 350 344 352 352 3 29 156 159 157 178 187 195 196 193 190 190 187 187 185 183 182 180 179 177 176 175
336 333 321 317 325 337 350 359 30 52 360 23 106 91 8 354 351 1 3 41 15 36 39 97 136 145 156 163 190 193 187 186 194 193 191 189 187 187 187 186 184 184 185
321 316 304 302 310 290 295 303 290 133 99 356 43 135 137 219 311 339 358 15 16 32 17 51 103 138 159 162 173 191 185 181 190 195 194 191 188 188 188 190 190 189 189
315 314 312 313 303 285 275 278 212 170 142 45 353 30 116 164 149 350 343 352 12 27 11 17 44 113 151 167 181 192 188 185 191 196 195 195 191 190 194 195 193 192 192
315 314 306 307 299 283 272 266 227 175 162 163 167 123 68 60 89 136 324 338 356 344 352 349 20 70 116 174 187 198 195 191 194 200 200 200 197 197 198 198 196 194 195
310 315 306 301 293 284 276 254 216 189 185 170 167 156 151 141 156 132 165 320 331 319 317 323 357 23 70 111 194 195 195 195 196 199 201 205 204 206 205 202 200 199 200
295 300 307 297 293 284 273 249 213 212 191 177 183 193 194 193 160 151 145 162 24 326 328 326 315 346 43 48 56 169 193 198 200 204 206 207 207 210 206 204 203 204 206
267 285 296 292 293 299 302 255 227 230 200 198 203 196 199 211 174 169 163 148 106 7 352 308 308 313 332 18 25 105 176 192 194 201 206 198 200 205 207 206 208 210 212
268 282 291 289 297 303 313 309 265 252 204 206 207 201 203 219 190 186 170 159 153 153 269 291 309 311 323 16 38 89 137 195 192 197 199 196 195 201 207 209 211 211 211
271 285 289 285 292 294 303 6 283 266 154 207 203 195 219 220 197 183 176 168 158 161 200 266 271 296 320 352 69 82 184 180 178 183 192 195 195 198 206 211 215 214 209
263 260 262 265 277 288 289 185 237 208 182 240 241 209 232 209 191 190 174 165 169 162 187 271 280 303 337 348 21 38 74 154 180 184 184 195 198 202 206 210 209 207 207
252 246 244 246 259 269 266 220 230 216 208 239 246 222 244 204 188 185 177 181 187 185 178 215 282 308 317 293 308 62 0 65 160 190 188 194 200 202 204 203 202 202 205
243 244 227 233 248 253 251 243 222 219 221 235 233 224 238 210 219 206 195 195 199 186 176 181 228 290 309 346 36 22 30 4 331 193 181 185 199 206 209 206 207 207 207
229 233 227 231 242 246 240 239 224 223 229 238 237 234 234 220 225 216 206 203 189 173 166 168 193 240 263 309 108 84 357 359 333 355 66 182 209 204 212 216 214 211 210
226 225 225 237 250 247 239 220 211 215 221 241 254 249 243 236 228 214 202 195 181 177 174 174 188 196 214 179 204 198 247 322 325 4 30 3 110 173 235 235 223 215 211
228 218 221 228 244 253 255 220 200 200 211 220 248 267 263 256 253 237 221 202 187 182 185 182 190 194 209 205 198 184 162 109 304 329 59 305 134 228 254 244 231 218 212
223 224 230 226 239 256 258 231 205 187 204 222 229 249 266 267 265 238 231 212 208 207 194 184 190 203 199 197 179 179 185 184 216 247 73 282 247 229 260 271 231 204 196
218 225 232 230 235 252 252 230 205 185 196 224 230 231 237 260 252 201 184 178 214 234 220 203 199 205 207 197 188 181 173 153 315 286 166 212 266 260 298 312 240 190 182
221 220 223 222 225 247 249 225 196 178 199 235 247 242 230 241 250 195 163 176 201 283 260 190 181 186 192 184 164 141 147 149 212 260 166 170 195 336 338 343 16 87 154
224 220 224 222 221 234 241 224 198 184 201 229 251 258 246 238 237 199 178 180 200 234 181 122 111 89 84 99 130 158 167 165 173 222 194 151 164 91 12 356 20 17 22
Height
1511 1511 1510 1509 1508 1508 1507 1506 1506 1506 1506 1506 1506 1506 1507 1508 1509 1510 1511 1512 1514 1515 1516 1517 1518 1519 1520 1521 1522 1523 1524 1525 1526 1528 1529 1531 1533 1535 1536 1539 1541 1543 1546
1510 1509 1509 1508 1507 1506 1506 1505 1505 1504 1504 1504 1504 1505 1505 1506 1507 1508 1509 1511 1512 1514 1515 1516 1517 1518 1520 1521 1522 1523 1525 1526 1528 1529 1531 1532 1534 1536 1538 1540 1543 1545 1547
1509 1508 1507 1506 1505 1505 1504 1503 1503 1503 1503 1503 1503 1503 1503 1504 1505 1506 1507 1509 1510 1512 1513 1514 1516 1517 1519 1520 1522 1523 1525 1527 1528 1530 1532 1533 1535 1537 1539 1541 1544 1546 1548
1508 1507 1506 1505 1504 1503 1502 1502 1501 1501 1501 1501 1501 1502 1502 1502 1503 1504 1505 1507 1509 1510 1512 1513 1514 1516 1517 1519 1521 1523 1524 1526 1528 1530 1532 1534 1536 1538 1540 1542 1545 1547 1549
1507 1506 1505 1504 1503 1502 1501 1500 1500 1499 1499 1499 1500 1500 1500 1501 1502 1503 1504 1505 1507 1509 1510 1512 1513 1515 1516 1518 1520 1522 1524 1526 1528 1530 1532 1534 1536 1538 1540 1543 1545 1547 1549
1506 1505 1504 1503 1502 1501 1500 1499 1498 1498 1498 1498 1498 1499 1499 1500 1501 1501 1502 1504 1505 1507 1509 1511 1512 1513 1515 1517 1519 1521 1523 1525 1527 1529 1532 1534 1536 1538 1540 1542 1545 1547 1549
1506 1504 1503 1502 1501 1500 1499 1498 1497 1497 1497 1497 1497 1498 1498 1498 1499 1500 1501 1502 1504 1505 1507 1509 1511 1512 1514 1516 1518 1520 1522 1524 1526 1528 1531 1533 1535 1537 1540 1542 1544 1546 1548
1505 1504 1502 1501 1500 1499 1498 1497 1496 1496 1496 1496 1496 1497 1497 1499 1498 1499 1500 1501 1502 1504 1505 1507 1509 1511 1513 1514 1516 1518 1521 1523 1525 1527 1529 1532 1534 1536 1538 1541 1543 1545 1547
1505 1503 1502 1501 1499 1498 1497 1496 1496 1495 1495 1495 1495 1496 1496 1496 1497 1498 1498 1499 1501 1502 1504 1505 1507 1509 1511 1513 1515 1517 1519 1521 1523 1525 1527 1530 1532 1534 1537 1539 1541 1543 1545
1504 1503 1501 1500 1498 1497 1496 1495 1495 1494 1494 1494 1495 1495 1496 1496 1497 1497 1498 1498 1499 1500 1502 1504 1506 1507 1509 1511 1513 1515 1517 1519 1522 1524 1526 1528 1530 1532 1534 1537 1539 1541 1543
1503 1502 1500 1499 1497 1496 1495 1495 1494 1494 1494 1494 1494 1495 1495 1496 1496 1497 1497 1498 1499 1500 1501 1502 1504 1506 1508 1510 1512 1514 1516 1518 1520 1522 1524 1526 1528 1530 1532 1534 1536 1539 1541
1503 1501 1500 1498 1497 1495 1494 1494 1493 1493 1493 1493 1493 1494 1495 1495 1495 1496 1496 1497 1498 1499 1500 1501 1502 1504 1506 1508 1510 1512 1513 1516 1518 1520 1522 1524 1526 1527 1529 1532 1534 1536 1538
1502 1501 1499 1497 1496 1495 1494 1493 1492 1492 1492 1492 1493 1493 1494 1494 1495 1496 1496 1496 1497 1498 1499 1500 1501 1502 1504 1506 1508 1510 1511 1513 1515 1517 1519 1521 1523 1525 1526 1529 1531 1533 1536
1501 1500 1498 1497 1496 1494 1493 1493 1492 1492 1492 1492 1492 1492 1493 1493 1494 1495 1496 1496 1497 1497 1498 1499 1500 1501 1502 1504 1506 1507 1509 1511 1513 1515 1517 1519 1521 1523 1524 1526 1528 1531 1533
1501 1499 1498 1497 1495 1494 1493 1492 1492 1491 1491 1491 1491 1491 1492 1492 1493 1494 1495 1496 1497 1497 1497 1498 1499 1499 1500 1502 1504 1505 1507 1508 1510 1512 1514 1516 1518 1520 1522 1524 1526 1528 1530
1500 1499 1498 1496 1495 1494 1493 1492 1491 1491 1491 1490 1490 1490 1491 1491 1492 1493 1493 1494 1495 1496 1497 1497 1498 1498 1499 1500 1502 1503 1505 1506 1508 1509 1511 1513 1515 1517 1519 1521 1523 1525 1527
1499 1498 1497 1496 1495 1494 1493 1492 1491 1490 1490 1490 1489 1489 1490 1490 1491 1492 1492 1493 1494 1495 1495 1496 1497 1498 1498 1499 1500 1501 1503 1504 1505 1507 1509 1510 1512 1514 1516 1518 1520 1521 1523
1498 1497 1496 1495 1494 1493 1492 1491 1491 1490 1489 1489 1489 1489 1489 1489 1489 1490 1491 1492 1492 1493 1494 1495 1496 1496 1497 1498 1499 1500 1501 1502 1503 1505 1506 1508 1510 1512 1513 1515 1516 1518 1519
1496 1495 1495 1494 1493 1492 1491 1491 1490 1489 1489 1488 1488 1488 1488 1488 1488 1489 1490 1490 1491 1492 1493 1493 1494 1495 1496 1496 1497 1498 1499 1500 1501 1502 1504 1505 1507 1508 1510 1512 1513 1514 1516
1494 1493 1493 1492 1492 1491 1490 1490 1489 1489 1488 1488 1487 1487 1487 1487 1487 1488 1488 1489 1489 1490 1491 1492 1492 1493 1494 1495 1495 1496 1497 1498 1499 1500 1501 1503 1504 1505 1507 1508 1509 1511 1512
1492 1491 1491 1491 1490 1490 1489 1489 1488 1488 1487 1487 1486 1486 1486 1486 1486 1486 1487 1487 1488 1489 1489 1490 1491 1492 1492 1493 1494 1494 1495 1496 1497 1498 1499 1500 1501 1502 1503 1504 1506 1507 1508
1489 1489 1489 1488 1488 1488 1488 1487 1487 1486 1486 1485 1485 1485 1485 1485 1485 1485 1485 1486 1486 1487 1487 1488 1489 1489 1490 1491 1492 1493 1493 1494 1495 1496 1496 1497 1498 1499 1500 1501 1502 1503 1504
1486 1486 1486 1486 1485 1485 1485 1485 1485 1485 1484 1484 1484 1484 1483 1483 1483 1483 1484 1484 1485 1485 1486 1486 1487 1487 1488 1489 1490 1491 1492 1492 1493 1493 1494 1494 1495 1496 1497 1498 1499 1500 1501
1482 1482 1482 1483 1483 1483 1483 1483 1483 1483 1482 1482 1482 1482 1482 1482 1482 1482 1482 1482 1483 1483 1483 1484 1485 1485 1486 1487 1488 1489 1490 1490 1491 1491 1492 1492 1492 1493 1494 1495 1495 1496 1497
1478 1478 1479 1479 1479 1479 1480 1480 1480 1480 1480 1480 1480 1480 1480 1480 1480 1480 1480 1480 1481 1481 1481 1482 1482 1483 1484 1485 1486 1487 1487 1488 1488 1489 1489 1489 1490 1490 1491 1492 1493 1493 1494
1474 1474 1474 1475 1475 1475 1476 1476 1477 1477 1477 1477 1477 1477 1477 1477 1478 1478 1478 1478 1478 1479 1479 1480 1480 1481 1482 1483 1484 1485 1485 1486 1486 1487 1487 1487 1487 1488 1488 1489 1490 1490 1491